Regional Weather Roundup
Issued by NWS

Home | Current Version | Previous Version | Text Only | Print | Product List | Glossary Off
Versions: 1 2 3 4 5 6 7 8 9 10 11 12 13 14 15 16 17 18 19 20 21 22 23 24 25 26 27 28 29 30 31 32 33 34 35 36 37 38 39 40 41 42 43 44 45 46 47 48 49 50

000
ASUS43 KDTX 191801
RWRMI
MICHIGAN HOURLY REGIONAL WEATHER ROUNDUP
NATIONAL WEATHER SERVICE DETROIT/PONTIAC MI
100 PM EST SUN FEB 19 2017

NOTE: "FAIR" INDICATES FEW OR NO CLOUDS BELOW 12,000 FEET WITH NO
SIGNIFICANT WEATHER AND/OR OBSTRUCTION TO VISIBILITY.

MIZ047>049-052>055-059>063-066>070-074>076-081>083-191900-
SOUTHEAST LOWER MICHIGAN

CITY           SKY/WX    TMP DP  RH WIND       PRES   REMARKS
ADRIAN         SUNNY     60  31  33 NW10      30.02F
6HR MIN TEMP:  36; 6HR MAX TEMP:  60;

ALMA           SUNNY     57  31  36 W8        30.02F
6HR MIN TEMP:  29; 6HR MAX TEMP:  57;

ANN ARBOR      SUNNY     61  32  33 W12       30.00F
BAD AXE        SUNNY     51  35  53 NW9       30.00R
6HR MIN TEMP:  32; 6HR MAX TEMP:  52;

CARO           SUNNY     54  36  50 W7        30.00S
DETROIT CITY   SUNNY     62  31  31 W10       29.98F
6HR MIN TEMP:  42; 6HR MAX TEMP:  62;

DETROIT        MOSUNNY   62  32  32 W10       30.00F
6HR MIN TEMP:  38; 6HR MAX TEMP:  63;

FLINT          SUNNY     54  35  48 W8        30.02R
6HR MIN TEMP:  34; 6HR MAX TEMP:  55;

GROSSE ILE     SUNNY     62  32  31 W8        29.98F
6HR MIN TEMP:  38; 6HR MAX TEMP:  62;

HILLSDALE      SUNNY     59  32  36 W13       30.02S
HOWELL         SUNNY     58  32  37 W12       30.00F
6HR MIN TEMP:  35; 6HR MAX TEMP:  58;


CITY           SKY/WX    TMP DP  RH WIND       PRES   REMARKS
JACKSON        SUNNY     60  30  32 NW13G18   30.01F
6HR MIN TEMP:  33; 6HR MAX TEMP:  61;

LAMBERTVILLE   SUNNY     61  38  42 W8        30.00F
6HR MIN TEMP:  39; 6HR MAX TEMP:  61;

LANSING        SUNNY     58  32  37 NW8       30.03S
6HR MIN TEMP:  37; 6HR MAX TEMP:  58;

LAPEER         FAIR      56  33  42 W8G16     30.00S
6HR MIN TEMP:  37; 6HR MAX TEMP:  56;

MASON          SUNNY     58  35  42 W10       30.01F
MONROE         SUNNY     60  40  46 W13       30.00F
MT. CLEMENS    MOSUNNY   62  34  35 VRB6      29.97S
6HR MIN TEMP:  38; 6HR MAX TEMP:  62;

PONTIAC        MOSUNNY   58  31  35 W16       29.99R
6HR MIN TEMP:  35; 6HR MAX TEMP:  58;

PORT HOPE        N/A     48  33  56 NW12      29.98R
6HR MIN TEMP:  37; 6HR MAX TEMP:  49;

PORT HURON     SUNNY     57  36  44 W7        29.99R
TRI CITIES     SUNNY     56  34  43 W9        30.01S
6HR MIN TEMP:  36; 6HR MAX TEMP:  56;

MIDLAND        FAIR      56  31  38 NW9       30.00F
6HR MIN TEMP:  31; 6HR MAX TEMP:  56;

TROY           SUNNY     61  28  28 W12       30.00S
SAGINAW HB     SUNNY     55  30  38 W7        30.01S
$$
MIZ043>046-050>051-056>058-064>065-071>073-077>080-191900-
SOUTHWEST LOWER MICHIGAN

CITY           SKY/WX    TMP DP  RH WIND       PRES   REMARKS
BATTLE CREEK   SUNNY     59  30  33 W9        30.03F
6HR MIN TEMP:  39; 6HR MAX TEMP:  60;

BENTON HARBOR  SUNNY     55  31  39 VRB3      30.06F
6HR MIN TEMP:  28; 6HR MAX TEMP:  55;

BIG RAPIDS     SUNNY     54  31  42 NW10      30.01F
6HR MIN TEMP:  28; 6HR MAX TEMP:  54;

COLDWATER      SUNNY     60  30  31 NW8       30.04R
6HR MIN TEMP:  32; 6HR MAX TEMP:  60;

FREMONT        FAIR      56  30  36 W6        30.03F
6HR MIN TEMP:  27; 6HR MAX TEMP:  56;

HOLLAND        SUNNY     57  33  40 W6        30.05S
6HR MIN TEMP:  33; 6HR MAX TEMP:  57;

GRAND RAPIDS   MOSUNNY   58  32  37 W9        30.02F
6HR MIN TEMP:  34; 6HR MAX TEMP:  58;

IONIA          FAIR      57  31  37 SW6       30.01F
6HR MIN TEMP:  34; 6HR MAX TEMP:  58;

KALAMAZOO      SUNNY     61  25  25 W9        30.04F
6HR MIN TEMP:  30; 6HR MAX TEMP:  61;

LUDINGTON      SUNNY     53  34  49 W3        30.04S
6HR MIN TEMP:  26; 6HR MAX TEMP:  53;

MARSHALL       SUNNY     61  30  31 W9        30.02F
6HR MIN TEMP:  32; 6HR MAX TEMP:  62;

MOUNT PLEASANT SUNNY     55  34  44 W7        30.01S
6HR MIN TEMP:  34; 6HR MAX TEMP:  56;

MUSKEGON       MOSUNNY   56  29  35 NW6       30.04F
6HR MIN TEMP:  28; 6HR MAX TEMP:  57;

SOUTH HAVEN    SUNNY     54  34  47 NW6       30.06S
$$
MIZ016>042-191900-
NORTHERN LOWER MICHIGAN

CITY           SKY/WX    TMP DP  RH WIND       PRES   REMARKS
ALPENA         SUNNY     50  32  50 NW9       29.99R
6HR MIN TEMP:  35; 6HR MAX TEMP:  50;

BEAVER ISLAND  CLOUDY    45  32  60 W6        30.03S
6HR MIN TEMP:  37; 6HR MAX TEMP:  45;

BELLAIRE       SUNNY     46  31  55 CALM      30.03R
6HR MIN TEMP:  23; 6HR MAX TEMP:  46;

CADILLAC       SUNNY     51  31  47 W8        30.01R
CHARLEVOIX     SUNNY     44  32  64 NW5       30.05S
6HR MIN TEMP:  35; 6HR MAX TEMP:  44;

FRANKFORT      SUNNY     49  35  58 W9        30.05R
GAYLORD        SUNNY     47  29  49 W6        29.99S
6HR MIN TEMP:  31; 6HR MAX TEMP:  48;

GRAYLING       SUNNY     48  31  52 W7        30.00F
6HR MIN TEMP:  26; 6HR MAX TEMP:  48;

HARBOR SPRINGS SUNNY     40  32  73 SW8       30.01S WCI  34
HOUGHTON LAKE  SUNNY     48  31  51 W8        30.00F
6HR MIN TEMP:  28; 6HR MAX TEMP:  48;

MANISTEE       SUNNY     51  33  50 W6        30.04S
OSCODA         SUNNY     53  31  42 NW7G16    29.97S
6HR MIN TEMP:  33; 6HR MAX TEMP:  54;

PELLSTON       SUNNY     42  29  59 NW8       30.01S
6HR MIN TEMP:  25; 6HR MAX TEMP:  43;

ROGERS CITY    SUNNY     46  28  48 NW13G20   30.00S
TRAVERSE CITY  MOSUNNY   48  30  49 NE6       30.03S
6HR MIN TEMP:  29; 6HR MAX TEMP:  48;

$$
MIZ007>008-015-191900-
EASTERN UPPER MICHIGAN

CITY           SKY/WX    TMP DP  RH WIND       PRES   REMARKS
KINROSS        SUNNY     41  29  62 NW10      29.99R
6HR MIN TEMP:  33; 6HR MAX TEMP:  41;

MACKINAC ISLAN SUNNY     38  32  79 W7        30.00S WCI  33
6HR MIN TEMP:  32; 6HR MAX TEMP:  42;

NEWBERRY       SUNNY     41  28  60 NW8       30.01R
6HR MIN TEMP:  35; 6HR MAX TEMP:  42;

S. S. MARIE    SUNNY     43  30  60 NW9       29.98R
6HR MIN TEMP:  32; 6HR MAX TEMP:  43;

MUNISING         N/A     39  31  72 N10       30.04R WCI  32
6HR MIN TEMP:  35; 6HR MAX TEMP:  39;

$$
MIZ004>006-011>014-085-191900-
CENTRAL UPPER MICHIGAN

CITY           SKY/WX    TMP DP  RH WIND       PRES   REMARKS
MANISTIQUE     MOSUNNY   42  32  67 NW6       30.03S
6HR MIN TEMP:  36; 6HR MAX TEMP:  42;

ESCANABA       SUNNY     45  31  58 E5        30.05R
6HR MIN TEMP:  37; 6HR MAX TEMP:  46;

MENOMINEE      SUNNY     47  31  53 E9        30.05S
6HR MIN TEMP:  36; 6HR MAX TEMP:  50;

SAWYER-GWINN   SUNNY     39  28  65 CALM      30.03S
$$
MIZ001>003-009>011-084-191900-
WESTERN UPPER MICHIGAN

CITY           SKY/WX    TMP DP  RH WIND       PRES   REMARKS
IRON MOUNTAIN  CLOUDY    44  28  53 CALM      30.02S
6HR MIN TEMP:  29; 6HR MAX TEMP:  45;

HOUGHTON       MOSUNNY   45  27  49 CALM      30.02S
6HR MIN TEMP:  26; 6HR MAX TEMP:  45;

COPPER HARBOR    N/A     38  30  73 NE3       30.05R
6HR MIN TEMP:  34; 6HR MAX TEMP:  40;

IRONWOOD       MOSUNNY   48  30  49 E5        30.00S
6HR MIN TEMP:  26; 6HR MAX TEMP:  48;

$$

ABBREVIATIONS USED IN REMARKS
   TC - TEMPERATURE IN CELSIUS
  WCI - WIND CHILL INDEX
   HX - HEAT INDEX
  VSB - VISIBILITY





USA.gov is the U.S. government's official web portal to all federal, state and local government web resources and services.